Location: Bamazo
(6.7448°N, 10.8189°W)
Time: 00:36:28
(UTC+00:00)

SMAP - Pass Details

Date: 18 September 2020
Orbit: 681 x 683 km, 98.1° (Epoch: 21 October)

Event Time Altitude Azimuth Distance (km) Brightness Sun altitude
Rises 18:51:39 0° 179° (S) 3,037 6.4 -3.4°
Reaches altitude 10° 18:53:57 10° 185° (S) 2,122 5.7 -4.0°
Maximum altitude 18:58:25 48° 259° (WSW) 892 4.3 -5.1°
Drops below altitude 10° 19:02:53 10° 333° (NNW) 2,118 6.0 -6.2°
Sets 19:05:11 0° 339° (NNW) 3,031 6.7 -6.8°
